User: anonymous   Login
Location: Unspecified
(0.0000°N, 0.0000°E)
Time: 19:18:02
(UTC+00:00)
Language:

Fuji - Orbit

View from above orbital plane
View from above orbital plane
View from above satellite
View from above satellite

Ground track
Ground track

The orbit data is extracted from the following two-line orbital elements,

1 16909U 86061B   19341.30767288 -.00000098  00000-0 -66885-5 0  9992
2 16909  50.0157 282.2832 0011075 216.8142 309.1683 12.44469678515260
Epoch (UTC): 07 December 2019 07:23:02
Eccentricity: 0.0011075
inclination: 50.0157°
perigee height: 1479 km
apogee height: 1496 km
right ascension of ascending node: 282.2832°
argument of perigee: 216.8142°
revolutions per day: 12.44469678
mean anomaly at epoch: 309.1683°
orbit number at epoch: 51526

The dashed part of the orbit path shows where the satellite is in the earth's shadow,  

DLR